This is the latest recevied weather packets stored in our database for station/object N5PA. If no packets are shown the sender has not sent any weather packets the latest 10 day(s).
| Time | Temp. | Humidity | Pressure | Rain* | Wind** | Luminosity | Snow |
|---|---|---|---|---|---|---|---|
| 1778001906 | 26.11° C | 56% | 1013.4 hPa | 0 mm | - | 991 W/m² | - |
| 1778001607 | 26.11° C | 55% | 1013.2 hPa | 0 mm | - | 993 W/m² | - |
| 1778001307 | 25.56° C | 58% | 1013.2 hPa | 0 mm | - | 993 W/m² | - |
| 1778001008 | 25.56° C | 55% | 1013.4 hPa | 0 mm | - | 993 W/m² | - |
| 1778000706 | 25.56° C | 55% | 1013.5 hPa | 0 mm | - | 993 W/m² | - |
| 1778000407 | 25.56° C | 60% | 1013.6 hPa | 0 mm | - | 993 W/m² | - |
| 1778000107 | 25° C | 58% | 1013.5 hPa | 0 mm | - | 995 W/m² | - |
| 1777999807 | 25° C | 60% | 1013.6 hPa | 0 mm | - | 995 W/m² | - |
| 1777999507 | 25° C | 61% | 1013.6 hPa | 0 mm | - | 995 W/m² | - |
| 1777999206 | 24.44° C | 62% | 1013.6 hPa | 0 mm | - | 995 W/m² | - |
| 1777998906 | 24.44° C | 59% | 1013.6 hPa | 0 mm | - | 995 W/m² | - |
| 1777998607 | 24.44° C | 60% | 1013.6 hPa | 0 mm | - | 995 W/m² | - |
| 1777998307 | 24.44° C | 61% | 1013.6 hPa | 0 mm | - | 997 W/m² | - |
| 1777998006 | 24.44° C | 63% | 1013.5 hPa | 0 mm | - | 997 W/m² | - |
| 1777997707 | 23.89° C | 62% | 1013.4 hPa | 0 mm | - | 997 W/m² | - |
| 1777997405 | 23.89° C | 62% | 1013.5 hPa | 0 mm | - | 997 W/m² | - |
| 1777997105 | 23.89° C | 63% | 1013.2 hPa | 0 mm | - | 995 W/m² | - |
| 1777996807 | 23.89° C | 61% | 1013.3 hPa | 0 mm | - | 997 W/m² | - |
| 1777996507 | 23.89° C | 62% | 1013.5 hPa | 0 mm | - | 997 W/m² | - |
| 1777996207 | 23.89° C | 63% | 1013.6 hPa | 0 mm | - | 997 W/m² | - |
| 1777995907 | 23.33° C | 65% | 1013.7 hPa | 0 mm | - | 997 W/m² | - |
| 1777995607 | 23.33° C | 65% | 1013.6 hPa | 0 mm | - | 997 W/m² | - |
| 1777995307 | 23.33° C | 66% | 1013.7 hPa | 0 mm | - | 998 W/m² | - |
| 1777995005 | 22.78° C | 65% | 1013.8 hPa | 0 mm | - | 998 W/m² | - |
| 1777994707 | 22.78° C | 65% | 1013.8 hPa | 0 mm | - | 998 W/m² | - |
* Rain latest hour (hover to see other rain measurements)
** Current wind speed in m/s (hover to see current wind gust speed)